Location: Newark
(45.4422°N, 16.2769°E)
Time: 16:06:57
(UTC+00:00)

Vanguard 2 - Pass Details

Date: 14 December 2019
Orbit: 553 x 2938 km, 32.9° (Epoch: 18 January)

Event Time Altitude Azimuth Distance (km) Brightness Sun altitude
Rises 20:39:10 0° 186° (S) 4,802 - -55.5°
Reaches altitude 10° 20:43:44 10° 167° (SSE) 4,263 - -56.2°
Maximum altitude 20:50:27 17° 133° (SE) 4,286 - -57.2°
Drops below altitude 10° 20:58:35 10° 100° (E) 5,357 - -58.4°
Sets 21:05:33 0° 85° (E) 6,662 - -59.4°
